Weather History for KC75 - February, 2013

Change the Weather History Date:

Sunday, February 10, 2013

  Actual Average (KPIA) Record (KPIA)
Temperature  
Mean Temperature 42 °F 28 °F  
Max Temperature 49 °F 36 °F 74 °F (1932)
Min Temperature 35 °F 20 °F -17 °F (1885)
Degree Days  
Heating Degree Days 23 37  
Month to date heating degree days 382  
Since 1 July heating degree days 3903  
Cooling Degree Days 0 0  
Month to date cooling degree days 0  
Year to date cooling degree days 0  
Moisture  
Dew Point 38 °F    
Average Humidity 86    
Maximum Humidity 97    
Minimum Humidity 58    
Precipitation  
Precipitation 0.25 in 0.06 in 0.72 in (2013)
Month to date precipitation 0.55  
Year to date precipitation 2.33  
Snow  
Snow 0.00 in 0.20 in 7.50 in (1944)
Month to date snowfall 2.4  
Since 1 July snowfall 17.5  
Snow Depth -    
Sea Level Pressure  
Sea Level Pressure 29.70 in    
Wind  
Wind Speed 14 mph (SSE)    
Max Wind Speed 25 mph    
Max Gust Speed 38 mph    
Visibility 8 miles    
Events Rain    
T = Trace of Precipitation, MM = Missing Value Source: NWS Daily Summary

Daily Weather History Graph

Daily Weather History Graph

Search for Another Location

Airport or City:

Trip Planner

Search our weather history database for the weather conditions in past years. The results will help you decide how hot, cold, wet, or windy it might be!

Date:

Astronomy

Feb. 10, 2013 Rise Set
Actual Time 6:57 AM CST 5:26 PM CST
Civil Twilight 6:29 AM CST 5:54 PM CST
Nautical Twilight 5:57 AM CST 6:27 PM CST
Astronomical Twilight 5:25 AM CST 6:59 PM CST
Moon 6:47 AM CST (2/10) 6:17 PM CST (2/10)
Length of Visible Light 11h 25m
Length of Day
10h 28m
New Moon, 0% of the Moon is Illuminated
Feb 10
New Moon
Feb 17
First Quarter
Feb 25
Full
Mar 4
Last Quarter
Mar 11
New

Hourly Weather History & Observations

Time (CST) Temp. Windchill Dew Point Humidity Pressure Visibility Wind Dir Wind Speed Gust Speed Precip Events Conditions
12:15 AM 35.6 °F 28.0 °F 29.3 °F 78% 30.04 in 10.0 mi SE 10.4 mph - N/A   Overcast
12:35 AM 35.6 °F 29.9 °F 29.3 °F 78% 30.04 in 10.0 mi SE 6.9 mph - N/A   Overcast
12:55 AM 36.3 °F 28.9 °F 29.3 °F 76% 30.03 in 10.0 mi SE 10.4 mph - N/A   Light Drizzle
1:15 AM 36.0 °F 28.5 °F 30.6 °F 81% 30.03 in 10.0 mi SSE 10.4 mph 17.3 mph N/A Rain Rain
1:35 AM 36.0 °F 28.0 °F 31.1 °F 82% 30.02 in 10.0 mi SSE 11.5 mph - N/A   Drizzle
1:55 AM 36.1 °F 28.7 °F 31.8 °F 84% 30.02 in 10.0 mi SSE 10.4 mph - N/A   Light Drizzle
2:15 AM 36.5 °F 29.7 °F 32.0 °F 84% 30.01 in 10.0 mi SE 9.2 mph - N/A   Drizzle
2:35 AM 36.9 °F 28.7 °F 32.0 °F 83% 30.00 in 10.0 mi SE 12.7 mph 19.6 mph N/A   Drizzle
2:55 AM 36.5 °F 28.2 °F 32.4 °F 85% 29.98 in 10.0 mi SE 12.7 mph 19.6 mph N/A Rain Light Rain
3:15 AM 36.5 °F 29.2 °F 32.7 °F 86% 29.98 in 10.0 mi SSE 10.4 mph 16.1 mph N/A Rain Light Rain
3:35 AM 37.4 °F 28.9 °F 33.8 °F 87% 29.96 in 7.0 mi SE 13.8 mph 19.6 mph N/A Rain Rain
3:55 AM 36.3 °F 27.1 °F 33.3 °F 89% 29.95 in 7.0 mi SE 15.0 mph 19.6 mph N/A Rain Light Rain
4:15 AM 35.8 °F 26.5 °F 33.3 °F 91% 29.94 in 7.0 mi SE 15.0 mph 23.0 mph N/A Rain Light Rain
4:35 AM 35.6 °F 25.9 °F 33.6 °F 92% 29.93 in 7.0 mi SE 16.1 mph 20.7 mph N/A Rain Light Rain
4:55 AM 35.8 °F 28.3 °F 33.8 °F 92% 29.93 in 7.0 mi SE 10.4 mph - N/A Rain Light Rain
5:15 AM 35.8 °F 28.8 °F 34.3 °F 94% 29.91 in 7.0 mi ESE 9.2 mph - N/A Rain Rain
5:35 AM 35.1 °F 27.4 °F 34.0 °F 96% 29.90 in 5.0 mi ESE 10.4 mph - N/A Rain Light Rain
5:55 AM 35.1 °F 25.9 °F 33.8 °F 95% 29.88 in 7.0 mi ESE 13.8 mph 18.4 mph N/A   Overcast
6:15 AM 35.1 °F 26.9 °F 33.8 °F 95% 29.87 in 7.0 mi ESE 11.5 mph - N/A   Overcast
6:35 AM 35.2 °F 26.6 °F 34.0 °F 95% 29.85 in 5.0 mi ESE 12.7 mph 18.4 mph N/A Rain Light Rain
6:55 AM 35.6 °F 28.0 °F 34.2 °F 94% 29.86 in 5.0 mi SE 10.4 mph 16.1 mph N/A Rain Light Rain
7:15 AM 36.1 °F 26.9 °F 34.7 °F 94% 29.83 in 5.0 mi East 15.0 mph 21.9 mph N/A Rain Light Rain
7:35 AM 36.7 °F 29.4 °F 34.9 °F 93% 29.83 in 5.0 mi SE 10.4 mph - 0.01 in Rain Light Rain
7:55 AM 36.9 °F 28.7 °F 34.9 °F 93% 29.82 in 7.0 mi ESE 12.7 mph - 0.01 in   Overcast
8:15 AM 36.9 °F 29.6 °F 34.9 °F 93% 29.80 in 5.0 mi ESE 10.4 mph - N/A Rain Rain
8:35 AM 37.0 °F 28.5 °F 35.1 °F 93% 29.79 in 5.0 mi SE 13.8 mph - N/A Rain Light Rain
8:55 AM 37.4 °F 28.5 °F 35.6 °F 93% 29.78 in 3.0 mi SE 15.0 mph 20.7 mph 0.02 in Rain Rain
9:15 AM 37.4 °F 30.3 °F 36.0 °F 95% 29.77 in 1.8 mi SE 10.4 mph - 0.08 in Rain Heavy Rain
9:35 AM 37.4 °F 31.4 °F 36.5 °F 97% 29.76 in 4.0 mi SE 8.1 mph - 0.11 in Rain Light Rain
9:55 AM 38.8 °F 30.0 °F 37.2 °F 94% 29.74 in 4.0 mi SE 16.1 mph 21.9 mph 0.14 in Rain Rain
10:15 AM 39.6 °F 30.0 °F 38.1 °F 95% 29.73 in 2.5 mi SSE 19.6 mph 24.2 mph 0.04 in Rain Heavy Rain
10:35 AM 40.1 °F 31.6 °F 38.5 °F 94% 29.71 in 5.0 mi SE 16.1 mph 24.2 mph 0.08 in Rain Light Rain
10:55 AM 41.2 °F 31.6 °F 39.6 °F 94% 29.68 in 7.0 mi SE 21.9 mph 27.6 mph 0.08 in   Overcast
11:15 AM 42.1 °F 34.2 °F 40.1 °F 93% 29.67 in 7.0 mi SSE 16.1 mph 23.0 mph N/A   Unknown
11:35 AM 42.8 °F 33.8 °F 40.5 °F 91% 29.64 in 5.0 mi SE 21.9 mph 28.8 mph N/A Rain Light Rain
11:55 AM 42.8 °F 35.4 °F 41.0 °F 93% 29.63 in 7.0 mi SSE 15.0 mph 23.0 mph N/A Rain Light Rain
12:15 PM 44.1 °F 36.2 °F 42.1 °F 93% 29.60 in 7.0 mi SSE 18.4 mph 26.5 mph N/A   Drizzle
12:35 PM 44.6 °F 36.9 °F 42.3 °F 91% 29.58 in 7.0 mi SSE 18.4 mph 27.6 mph N/A Rain Light Rain
12:55 PM 45.1 °F 38.8 °F 42.8 °F 91% 29.57 in 10.0 mi SSE 13.8 mph 27.6 mph N/A   Unknown
1:15 PM 45.7 °F 37.8 °F 42.8 °F 90% 29.56 in 10.0 mi SSE 20.7 mph 34.5 mph N/A   Unknown
1:35 PM 45.9 °F 38.0 °F 43.2 °F 90% 29.55 in 10.0 mi SSE 20.7 mph 33.4 mph N/A   Unknown
1:55 PM 46.0 °F 38.0 °F 43.3 °F 90% 29.53 in 10.0 mi SSE 21.9 mph 35.7 mph N/A   Unknown
2:15 PM 46.4 °F 38.3 °F 43.3 °F 89% 29.53 in 10.0 mi SSE 23.0 mph 33.4 mph N/A   Unknown
2:35 PM 46.0 °F 38.5 °F 43.9 °F 92% 29.53 in 3.0 mi SSE 19.6 mph 29.9 mph N/A Rain Rain
2:55 PM 45.9 °F 38.5 °F 44.2 °F 94% 29.52 in 2.5 mi SSE 18.4 mph 32.2 mph N/A Rain Light Rain
3:15 PM 45.9 °F 37.8 °F 44.6 °F 95% 29.52 in 2.5 mi South 21.9 mph 28.8 mph N/A   Drizzle
3:35 PM 46.0 °F 38.0 °F 44.6 °F 95% 29.50 in 7.0 mi SSE 21.9 mph 31.1 mph N/A   Unknown
3:55 PM 46.6 °F - 44.8 °F 93% 29.50 in 10.0 mi SSE 17.3 mph 28.8 mph N/A   Unknown
4:15 PM 46.8 °F - 45.0 °F 93% 29.49 in 10.0 mi SSE 17.3 mph 28.8 mph N/A   Unknown
4:35 PM 47.3 °F - 45.1 °F 92% 29.49 in 10.0 mi SSE 18.4 mph 38.0 mph N/A   Unknown
4:55 PM 47.7 °F - 45.5 °F 92% 29.49 in 10.0 mi SSE 21.9 mph 32.2 mph N/A   Unknown
5:15 PM 48.2 °F - 45.5 °F 90% 29.49 in 10.0 mi SSE 17.3 mph 29.9 mph N/A   Unknown
5:35 PM 48.6 °F - 45.5 °F 89% 29.50 in 10.0 mi SSE 18.4 mph 29.9 mph N/A   Unknown
5:55 PM 48.6 °F - 45.5 °F 89% 29.49 in 10.0 mi South 19.6 mph 28.8 mph N/A   Unknown
6:15 PM 49.1 °F - 45.7 °F 88% 29.50 in 10.0 mi South 21.9 mph 27.6 mph N/A   Unknown
6:35 PM 49.1 °F - 45.5 °F 87% 29.50 in 10.0 mi South 16.1 mph 26.5 mph N/A   Unknown
6:55 PM 48.4 °F - 45.5 °F 90% 29.50 in 10.0 mi South 12.7 mph 21.9 mph N/A   Unknown
7:15 PM 49.1 °F - 45.3 °F 87% 29.50 in 10.0 mi South 16.1 mph 20.7 mph N/A   Unknown
7:35 PM 48.4 °F - 45.1 °F 89% 29.50 in 10.0 mi SSW 12.7 mph 24.2 mph N/A   Unknown
7:55 PM 47.1 °F - 44.8 °F 92% 29.51 in 10.0 mi South 12.7 mph 18.4 mph N/A   Unknown
8:15 PM 47.5 °F - 44.8 °F 90% 29.52 in 10.0 mi South 13.8 mph 19.6 mph N/A   Unknown
8:35 PM 47.5 °F - 44.6 °F 90% 29.53 in 10.0 mi SSW 9.2 mph 26.5 mph N/A   Unknown
8:55 PM 48.2 °F - 42.8 °F 82% 29.54 in 10.0 mi SSW 13.8 mph 24.2 mph N/A   Unknown
9:15 PM 47.8 °F - 37.6 °F 68% 29.54 in 10.0 mi SSW 15.0 mph 27.6 mph N/A   Unknown
9:35 PM 47.5 °F - 33.8 °F 59% 29.54 in 10.0 mi SSW 17.3 mph 26.5 mph N/A   Unknown
9:55 PM 47.5 °F - 33.8 °F 59% 29.55 in 10.0 mi SSW 16.1 mph 23.0 mph N/A   Unknown
10:15 PM 46.9 °F - 32.9 °F 58% 29.55 in 10.0 mi SSW 20.7 mph 33.4 mph N/A   Unknown
10:35 PM 46.2 °F 37.9 °F 32.9 °F 60% 29.55 in 10.0 mi SSW 24.2 mph 33.4 mph N/A   Unknown
10:55 PM 45.7 °F 37.4 °F 32.0 °F 59% 29.55 in 10.0 mi SSW 23.0 mph 32.2 mph N/A   Unknown
11:15 PM 44.8 °F 36.9 °F 31.1 °F 59% 29.57 in 10.0 mi SW 19.6 mph 26.5 mph N/A   Unknown
11:35 PM 43.9 °F 35.7 °F 30.0 °F 58% 29.57 in 10.0 mi SW 19.6 mph 36.8 mph N/A   Unknown
11:55 PM 42.8 °F 33.1 °F 30.0 °F 61% 29.58 in 10.0 mi SW 25.3 mph 38.0 mph N/A   Unknown